Arbor Vitae, WI

6:44 PM CDT on August 19, 2017 (GMT -0500)
Lakeland-Lee Memorial

Weather History for KARV - June, 2013

Change the Weather History Date:

Sunday, June 30, 2013

  Actual Average Record
Temperature  
Mean Temperature 61 °F -  
Max Temperature 77 °F 75 °F 97 °F (1963)
Min Temperature 45 °F 52 °F 37 °F (1965)
Degree Days  
Heating Degree Days 4    
Growing Degree Days 11 (Base 50)    
Moisture  
Dew Point 47 °F    
Average Humidity 60    
Maximum Humidity 92    
Minimum Humidity 28    
Precipitation  
Precipitation 0.00 in - - ()
Sea Level Pressure  
Sea Level Pressure 30.07 in    
Wind  
Wind Speed 7 mph (NNE)    
Max Wind Speed 13 mph    
Max Gust Speed 17 mph    
Visibility 10 miles    
Events      
Averages and records for this station are not official NWS values.
T = Trace of Precipitation, MM = Missing Value Source: NWS Daily Summary

Daily Weather History Graph

Daily Weather History Graph

Search for Another Location

Airport or City:

Trip Planner

Search our weather history database for the weather conditions in past years. The results will help you decide how hot, cold, wet, or windy it might be!

Date:

Astronomy

Jun. 30, 2013 Rise Set
Actual Time 5:11 AM CDT 8:53 PM CDT
Civil Twilight 4:33 AM CDT 9:31 PM CDT
Nautical Twilight 3:42 AM CDT 10:22 PM CDT
Astronomical Twilight 2:31 AM CDT 11:32 PM CDT
Moon 12:27 AM CDT (6/30) 1:53 PM CDT (6/30)
Length of Visible Light 16h 57m
Length of Day
15h 41m
Last Quarter, 45% of the Moon is Illuminated
Jun 30
Last Quarter
Jul 8
New
Jul 15
First Quarter
Jul 22
Full
Jul 29
Last Quarter

Hourly Weather History & Observations

Time (CDT) Temp. Windchill Dew Point Humidity Pressure Visibility Wind Dir Wind Speed Gust Speed Precip Events Conditions
12:15 AM 51.8 °F - 46.0 °F 81% 29.99 in 10.0 mi North 5.8 mph - N/A   Clear
12:35 AM 51.8 °F - 47.8 °F 86% 29.99 in 10.0 mi North 5.8 mph - N/A   Clear
12:55 AM 51.8 °F - 48.7 °F 89% 29.99 in 10.0 mi North 5.8 mph - N/A   Clear
1:15 AM 51.8 °F - 48.9 °F 90% 29.99 in 10.0 mi North 5.8 mph - N/A   Clear
1:35 AM 49.3 °F - 46.6 °F 90% 29.99 in 10.0 mi North 6.9 mph - N/A   Clear
1:55 AM 51.8 °F - 49.1 °F 90% 30.00 in 10.0 mi North 6.9 mph - N/A   Clear
2:15 AM 49.3 °F - 46.8 °F 91% 30.00 in 10.0 mi North 6.9 mph - N/A   Clear
2:35 AM 49.3 °F - 46.8 °F 91% 30.00 in 10.0 mi North 8.1 mph - N/A   Clear
2:55 AM 49.3 °F - 46.8 °F 91% 30.00 in 10.0 mi North 5.8 mph - N/A   Clear
3:15 AM 49.3 °F - 46.9 °F 92% 30.00 in 10.0 mi North 5.8 mph - N/A   Clear
3:35 AM 48.2 °F - 45.7 °F 91% 30.00 in 10.0 mi North 8.1 mph - N/A   Clear
3:55 AM 46.9 °F - 44.6 °F 92% 30.01 in 10.0 mi North 6.9 mph - N/A   Clear
4:15 AM 46.8 °F - 44.6 °F 92% 30.01 in 10.0 mi North 6.9 mph - N/A   Clear
4:35 AM 46.6 °F - 44.2 °F 92% 30.02 in 10.0 mi North 5.8 mph - N/A   Clear
4:55 AM 45.5 °F 42.5 °F 43.2 °F 92% 30.02 in 10.0 mi North 5.8 mph - N/A   Clear
5:15 AM 45.9 °F 42.3 °F 43.5 °F 92% 30.03 in 10.0 mi North 6.9 mph - N/A   Clear
5:35 AM 45.9 °F 42.9 °F 43.5 °F 92% 30.03 in 10.0 mi North 5.8 mph - N/A   Clear
5:55 AM 47.5 °F - 45.3 °F 92% 30.04 in 10.0 mi North 6.9 mph - N/A   Clear
6:15 AM 51.8 °F - 48.4 °F 88% 30.04 in 10.0 mi North 5.8 mph - N/A   Clear
6:35 AM 51.8 °F - 48.2 °F 88% 30.05 in 10.0 mi North 5.8 mph - N/A   Clear
6:55 AM 53.4 °F - 48.6 °F 84% 30.05 in 10.0 mi North 6.9 mph - N/A   Clear
7:15 AM 56.8 °F - 50.5 °F 79% 30.05 in 10.0 mi North 6.9 mph - N/A   Clear
7:35 AM 56.8 °F - 49.3 °F 76% 30.05 in 10.0 mi North 8.1 mph - N/A   Clear
7:55 AM 59.4 °F - 50.5 °F 73% 30.05 in 10.0 mi North 6.9 mph - N/A   Clear
8:15 AM 61.9 °F - 51.1 °F 68% 30.06 in 10.0 mi North 5.8 mph - N/A   Clear
8:35 AM 63.0 °F - 50.5 °F 64% 30.06 in 10.0 mi North 5.8 mph - N/A   Clear
8:55 AM 64.6 °F - 50.7 °F 61% 30.07 in 10.0 mi North 6.9 mph - N/A   Clear
9:15 AM 66.2 °F - 49.6 °F 55% 30.08 in 10.0 mi North 8.1 mph - N/A   Clear
9:35 AM 69.4 °F - 50.9 °F 52% 30.08 in 10.0 mi North 8.1 mph - N/A   Clear
9:55 AM 72.0 °F - 50.5 °F 47% 30.08 in 10.0 mi North 8.1 mph - N/A   Clear
10:15 AM 72.0 °F - 46.8 °F 41% 30.08 in 10.0 mi North 9.2 mph - N/A   Clear
10:35 AM 72.0 °F - 45.9 °F 39% 30.08 in 10.0 mi North 10.4 mph - N/A   Clear
10:55 AM 72.0 °F - 42.3 °F 34% 30.08 in 10.0 mi North 8.1 mph 17.3 mph N/A   Clear
11:35 AM 73.9 °F - 39.9 °F 29% 30.08 in 10.0 mi North 11.5 mph 17.3 mph N/A   Clear
11:55 AM 74.5 °F - 40.6 °F 30% 30.08 in 10.0 mi North 11.5 mph 17.3 mph N/A   Clear
12:34 PM 77.0 °F - 42.8 °F 29% 30.08 in 10.0 mi ENE 4.6 mph - N/A   Clear
12:35 PM 77.0 °F - 42.3 °F 29% 30.08 in 10.0 mi NE 4.6 mph - N/A   Clear
1:15 PM 77.0 °F - 42.4 °F 29% 30.08 in 10.0 mi NE 9.2 mph - N/A   Clear
1:35 PM 77.0 °F - 42.8 °F 29% 30.08 in 10.0 mi East 11.5 mph 17.3 mph N/A   Clear
1:55 PM 77.0 °F - 43.2 °F 30% 30.08 in 10.0 mi NNE 12.7 mph 16.1 mph N/A   Clear
2:15 PM 77.0 °F - 43.3 °F 30% 30.08 in 10.0 mi NNE 9.2 mph 16.1 mph N/A   Clear
2:55 PM 77.0 °F - 43.2 °F 30% 30.08 in 10.0 mi ENE 9.2 mph 16.1 mph N/A   Clear
3:15 PM 77.0 °F - 44.4 °F 31% 30.08 in 10.0 mi NE 4.6 mph - N/A   Scattered Clouds
3:35 PM 77.0 °F - 42.1 °F 29% 30.09 in 10.0 mi NE 9.2 mph - N/A   Clear
3:55 PM 77.0 °F - 44.6 °F 32% 30.09 in 10.0 mi NE 6.9 mph - N/A   Scattered Clouds
4:15 PM 77.0 °F - 45.1 °F 32% 30.09 in 10.0 mi NNE 11.5 mph - N/A   Clear
4:35 PM 77.0 °F - 45.1 °F 32% 30.09 in 10.0 mi North 10.4 mph - N/A   Clear
4:55 PM 77.0 °F - 44.8 °F 32% 30.09 in 10.0 mi NNE 10.4 mph - N/A   Clear
5:15 PM 77.0 °F - 43.2 °F 30% 30.09 in 10.0 mi NE 8.1 mph - N/A   Clear
5:35 PM 77.0 °F - 42.8 °F 29% 30.09 in 10.0 mi NNE 9.2 mph - N/A   Clear
5:55 PM 77.0 °F - 42.1 °F 29% 30.09 in 10.0 mi NNE 10.4 mph - N/A   Clear
6:15 PM 77.0 °F - 41.9 °F 28% 30.09 in 10.0 mi NNE 10.4 mph - N/A   Clear
6:35 PM 77.0 °F - 42.8 °F 29% 30.09 in 10.0 mi NNE 8.1 mph - N/A   Clear
6:55 PM 77.0 °F - 43.3 °F 30% 30.10 in 10.0 mi NNE 8.1 mph - N/A   Clear
7:15 PM 77.0 °F - 45.1 °F 32% 30.10 in 10.0 mi North 5.8 mph - N/A   Clear
7:35 PM 73.6 °F - 43.7 °F 34% 30.10 in 10.0 mi North 6.9 mph - N/A   Clear
7:55 PM 72.0 °F - 44.1 °F 37% 30.10 in 10.0 mi NNE 3.5 mph - N/A   Clear
8:15 PM 72.0 °F - 49.3 °F 45% 30.10 in 10.0 mi North 3.5 mph - N/A   Clear
8:35 PM 68.7 °F - 49.6 °F 51% 30.10 in 10.0 mi Calm Calm - N/A   Clear
8:55 PM 62.4 °F - 50.7 °F 66% 30.11 in 10.0 mi Calm Calm - N/A   Clear
9:15 PM 62.4 °F - 50.4 °F 65% 30.11 in 10.0 mi Calm Calm - N/A   Clear
9:35 PM 61.9 °F - 52.3 °F 71% 30.12 in 10.0 mi Calm Calm - N/A   Clear
9:55 PM 59.4 °F - 50.7 °F 73% 30.13 in 10.0 mi Calm Calm - N/A   Clear
10:15 PM 56.8 °F - 51.8 °F 83% 30.13 in 10.0 mi NNW 4.6 mph - N/A   Clear
10:35 PM 56.8 °F - 52.2 °F 84% 30.13 in 10.0 mi North 4.6 mph - N/A   Clear
10:55 PM 56.8 °F - 51.8 °F 83% 30.13 in 10.0 mi North 5.8 mph - N/A   Clear
11:15 PM 59.4 °F - 50.9 °F 74% 30.14 in 10.0 mi Calm Calm - N/A   Clear
11:35 PM 57.4 °F - 51.3 °F 80% 30.14 in 10.0 mi Calm Calm - N/A   Clear
11:55 PM 56.8 °F - 51.6 °F 83% 30.14 in 10.0 mi Calm Calm - N/A   Clear